White Plains, CT

6:40 PM EDT on August 18, 2017 (GMT -0400)
Westchester County

Weather History for KHPN - December, 2013

Change the Weather History Date:

Monday, December 9, 2013

  Actual Average Record
Temperature  
Mean Temperature 34 °F -  
Max Temperature 39 °F 42 °F 61 °F (1980)
Min Temperature 28 °F 29 °F 10 °F (1976)
Degree Days  
Heating Degree Days 32    
Moisture  
Dew Point 31 °F    
Average Humidity 92    
Maximum Humidity 97    
Minimum Humidity 88    
Precipitation  
Precipitation 0.06 in - - ()
Sea Level Pressure  
Sea Level Pressure 30.11 in    
Wind  
Wind Speed 8 mph (NNE)    
Max Wind Speed 15 mph    
Max Gust Speed 28 mph    
Visibility 3 miles    
Events Rain , Snow    
Averages and records for this station are not official NWS values.
T = Trace of Precipitation, MM = Missing Value Source: NWS Daily Summary

Daily Weather History Graph

Daily Weather History Graph

Search for Another Location

Airport or City:

Trip Planner

Search our weather history database for the weather conditions in past years. The results will help you decide how hot, cold, wet, or windy it might be!

Date:

Astronomy

Dec. 09, 2013 Rise Set
Actual Time 7:08 AM EST 4:26 PM EST
Civil Twilight 6:37 AM EST 4:57 PM EST
Nautical Twilight 6:02 AM EST 5:31 PM EST
Astronomical Twilight 5:29 AM EST 6:05 PM EST
Moon 11:57 AM EST (12/9) No Moon Set
Length of Visible Light 10h 19m
Length of Day
9h 17m
Waxing Crescent, 51% of the Moon is Illuminated
Dec 9
Waxing Crescent
Dec 17
Full
Dec 25
Last Quarter
Jan 1
New
Jan 7
First Quarter

Hourly Weather History & Observations

Time (EST) Temp. Windchill Dew Point Humidity Pressure Visibility Wind Dir Wind Speed Gust Speed Precip Events Conditions
12:56 AM 28.0 °F 20.8 °F 25.0 °F 88% 30.37 in 2.0 mi ENE 6.9 mph - 0.01 in Snow Light Snow
1:56 AM 28.9 °F 20.4 °F 26.1 °F 89% 30.34 in 3.0 mi NE 9.2 mph - 0.00 in   Overcast
2:11 AM 28.4 °F 19.7 °F 26.6 °F 93% 30.31 in 4.0 mi ENE 9.2 mph - 0.00 in   Light Freezing Drizzle
2:51 AM 28.4 °F 20.4 °F 26.6 °F 93% 30.29 in 3.0 mi ENE 8.1 mph - 0.00 in Rain Light Freezing Rain
2:56 AM 28.9 °F 21.1 °F 26.1 °F 89% 30.31 in 3.0 mi East 8.1 mph - 0.00 in Rain Light Freezing Rain
3:17 AM 28.4 °F 18.0 °F 26.6 °F 93% 30.28 in 4.0 mi East 12.7 mph - 0.00 in   Overcast
3:31 AM 28.4 °F 19.1 °F 26.6 °F 93% 30.26 in 3.0 mi ENE 10.4 mph 21.9 mph 0.00 in   Light Freezing Drizzle
3:56 AM 28.9 °F 19.8 °F 26.1 °F 89% 30.27 in 3.0 mi ENE 10.4 mph - 0.00 in   Light Freezing Drizzle
4:56 AM 28.9 °F 17.7 °F 27.0 °F 92% 30.23 in 3.0 mi ENE 15.0 mph 27.6 mph 0.00 in   Light Freezing Drizzle
5:56 AM 30.0 °F 20.0 °F 28.0 °F 92% 30.21 in 3.0 mi ENE 12.7 mph - 0.03 in   Light Freezing Drizzle
6:56 AM 30.0 °F 24.1 °F 28.0 °F 92% 30.20 in 1.5 mi Variable 5.8 mph 16.1 mph 0.00 in Rain Light Freezing Rain
7:33 AM 30.2 °F 21.3 °F 28.4 °F 93% 30.15 in 1.0 mi ENE 10.4 mph 17.3 mph 0.02 in Rain Light Freezing Rain
7:56 AM 30.9 °F 24.3 °F 28.9 °F 92% 30.19 in 1.0 mi NE 6.9 mph - 0.02 in Rain Light Freezing Rain
8:19 AM 30.2 °F 22.6 °F 28.4 °F 93% 30.14 in 2.0 mi NE 8.1 mph - 0.00 in Rain Light Freezing Rain
8:29 AM 30.2 °F 24.3 °F 28.4 °F 93% 30.13 in 2.0 mi Variable 5.8 mph - 0.00 in   Overcast
8:56 AM 32.0 °F 24.2 °F 30.0 °F 92% 30.14 in 2.0 mi NE 9.2 mph - 0.00 in   Overcast
9:16 AM 32.0 °F 24.8 °F 30.2 °F 93% 30.11 in 4.0 mi ENE 8.1 mph - N/A   Overcast
9:56 AM 33.1 °F 26.9 °F 30.9 °F 92% 30.11 in 3.0 mi NE 6.9 mph - N/A   Overcast
10:33 AM 33.8 °F 29.6 °F 32.0 °F 93% 30.07 in 1.0 mi Variable 4.6 mph - N/A   Overcast
10:56 AM 34.0 °F 28.0 °F 32.0 °F 92% 30.08 in 1.0 mi NE 6.9 mph - N/A   Mist
11:56 AM 35.1 °F - 33.1 °F 92% 30.02 in 1.2 mi Calm Calm - N/A   Mist
12:56 PM 37.0 °F - 36.0 °F 96% 29.97 in 1.2 mi Calm Calm - N/A   Mist
1:56 PM 39.0 °F 34.8 °F 37.0 °F 93% 29.97 in 1.5 mi NNW 5.8 mph - N/A   Overcast
2:56 PM 36.0 °F 31.1 °F 35.1 °F 97% 29.98 in 0.8 mi WNW 5.8 mph - N/A   Overcast
3:56 PM 36.0 °F 29.0 °F 34.0 °F 93% 29.99 in 0.8 mi NW 9.2 mph - N/A   Overcast
4:09 PM 35.6 °F 29.9 °F 33.8 °F 93% 29.96 in 1.0 mi NW 6.9 mph - N/A   Mist
4:56 PM 36.0 °F - 35.1 °F 97% 29.98 in 1.0 mi Calm Calm - N/A   Mostly Cloudy
5:56 PM 36.0 °F 29.6 °F 35.1 °F 97% 29.98 in 1.0 mi West 8.1 mph - N/A   Mostly Cloudy
6:56 PM 36.0 °F 29.0 °F 34.0 °F 93% 29.98 in 2.0 mi West 9.2 mph - N/A   Mostly Cloudy
7:56 PM 36.0 °F 28.5 °F 33.1 °F 89% 30.00 in 2.0 mi West 10.4 mph - N/A   Mostly Cloudy
8:17 PM 35.6 °F 29.9 °F 33.8 °F 93% 29.98 in 2.0 mi West 6.9 mph - N/A   Scattered Clouds
8:29 PM 35.6 °F 29.9 °F 33.8 °F 93% 29.98 in 7.0 mi West 6.9 mph - N/A   Partly Cloudy
8:56 PM 35.1 °F 31.0 °F 32.0 °F 89% 30.00 in 8.0 mi WSW 4.6 mph - N/A   Mostly Cloudy
9:56 PM 35.1 °F 29.3 °F 32.0 °F 89% 30.00 in 7.0 mi West 6.9 mph - N/A   Mostly Cloudy
10:56 PM 34.0 °F 29.8 °F 32.0 °F 92% 29.99 in 7.0 mi WSW 4.6 mph - N/A   Scattered Clouds
11:56 PM 34.0 °F 28.8 °F 30.9 °F 89% 29.99 in 9.0 mi West 5.8 mph - N/A   Clear